Home   Weather   Narowal   Past weeks

Flag for Pakistan Past Weather in Narowal, Pakistan — Yesterday and Last 2 Weeks

Now
73 °F

Haze.


Feels Like: 77 °F
Forecast: 68 / 94 °F
Wind: 6 mph from Northwest

Location: Amritsar Airport

Current Time: Apr 29, 2017 at 6:48:37 am

Latest Report: Apr 29, 2017 at 6:00 am


Visibility: 2 mi

Pressure: 29.74 "Hg

Humidity: 47%

Dew Point: 52 °F

Location of NarowalLocation

Past Weather in Narowal — Graph

°F

Narowal Temperature Yesterday

Maximum temperature yesterday: 99 °F (at 1:30 pm)
Minimum temperature yesterday: 70 °F (at 5:00 am)
Average temperature yesterday: 85 °F

High & Low Weather Summary for the Past Weeks

 TemperatureHumidityPressure
High109 °F (Apr 18, 4:00 pm)100% (Apr 22, 4:00 am)29.86 "Hg (Apr 22, 4:00 am)
Low64 °F (Apr 15, 5:30 am)8% (Apr 19, 12:30 pm)29.45 "Hg (Apr 20, 4:30 pm)
Average86 °F38%29.68 "Hg
* Reported Apr 14 5:00 am — Apr 29 5:30 am, Narowal, Weather by CustomWeather, © 2017

Note: Actual official high and low records may vary slightly from our data, if they occured in-between our weather recording intervals... More about our weather records

Advertising

Narowal Weather History for the Previous 24 Hours

Scroll right to see more
 ConditionsComfort  
Time TempWeatherWind HumidityBarometerVisibility
5:30 am
Sat, Apr 29
73 °FHaze.5 mph47%29.74 "Hg2 mi
5:00 am73 °FHaze.6 mph47%29.74 "Hg2 mi
4:30 am75 °FHaze.10 mph44%29.71 "Hg2 mi
4:00 am73 °FHaze.No wind50%29.68 "Hg2 mi
3:30 am75 °FHaze.No wind44%29.68 "Hg2 mi
3:00 am75 °FHaze.No wind44%29.68 "Hg2 mi
2:35 am75 °FHaze.No wind44%29.68 "Hg2 mi
2:00 am75 °FHaze.No wind44%29.68 "Hg3 mi
1:30 am79 °FHaze.No wind37%29.68 "Hg3 mi
1:00 am77 °FHaze.No wind42%29.68 "Hg3 mi
12:30 am79 °FHaze.No wind37%29.68 "Hg3 mi
12:00 am82 °FHaze.No wind32%29.68 "Hg3 mi
11:30 pm
Fri, Apr 28
81 °FHaze.No wind34%29.68 "Hg3 mi
11:00 pm81 °FHaze.No wind34%29.68 "Hg3 mi
10:30 pm81 °FHaze.No wind34%29.68 "Hg3 mi
10:00 pm82 °FHaze.No wind32%29.68 "Hg3 mi
9:30 pm88 °FPassing clouds.5 mph24%29.68 "Hg3 mi
9:00 pm90 °FPassing clouds.6 mph24%29.68 "Hg3 mi
8:30 pm90 °FPassing clouds.6 mph24%29.68 "Hg3 mi
8:00 pm91 °FPassing clouds.3 mph23%29.68 "Hg3 mi
7:30 pm93 °FPassing clouds.6 mph20%29.68 "Hg4 mi
7:00 pm93 °FScattered clouds.5 mph20%29.68 "Hg4 mi
6:30 pm93 °FScattered clouds.6 mph20%29.65 "Hg4 mi
6:00 pm95 °FScattered clouds.5 mph19%29.65 "Hg4 mi
5:00 pm99 °FScattered clouds.5 mph16%29.65 "Hg4 mi
4:30 pm99 °FScattered clouds.5 mph16%29.65 "Hg4 mi
4:00 pm99 °FScattered clouds.8 mph16%29.65 "Hg4 mi
3:30 pm99 °FScattered clouds.6 mph16%29.68 "Hg4 mi
3:00 pm99 °FScattered clouds.5 mph16%29.68 "Hg4 mi
2:30 pm99 °FScattered clouds.7 mph15%29.71 "Hg4 mi
2:00 pm99 °FScattered clouds.9 mph15%29.71 "Hg4 mi
1:30 pm99 °FScattered clouds.10 mph15%29.71 "Hg4 mi
12:00 pm97 °FScattered clouds.6 mph16%29.77 "Hg4 mi
11:00 am97 °FPassing clouds.3 mph18%29.77 "Hg4 mi
10:30 am95 °FClear.2 mph19%29.77 "Hg4 mi
9:30 am91 °FPassing clouds.2 mph24%29.77 "Hg4 mi
9:00 am90 °FPassing clouds.2 mph27%29.77 "Hg4 mi
8:30 am86 °FPassing clouds.2 mph31%29.80 "Hg4 mi
8:00 am82 °FHaze.2 mph35%29.77 "Hg3 mi
7:30 am79 °FHaze.No wind39%29.77 "Hg2 mi
7:00 am75 °FHaze.No wind44%29.80 "Hg2 mi
6:30 am73 °FHaze.No wind47%29.77 "Hg2 mi
6:00 am70 °FHaze.2 mph50%29.77 "Hg2 mi
Weather by CustomWeather, © 2017

See weather overviewHow to use our weather pages